English version Home page |
Updated on May 5, 2012 |
|
軌道要素Epoch 2005 Mar. 11.0 TT = JDT 2453440.5 T 2005 Feb. 24.55848 TT MPC q 1.3685520 (2000.0) P Q n 0.14901929 Peri. 330.70235 -0.06207583 -0.96160444 a 3.5235009 Node 121.64762 +0.96591934 -0.12531730 e 0.6115931 Incl. 18.30196 +0.25128951 +0.24415668 P 6.61 From 2684 observations 1963 Sept. 12-2012 May 2, mean residual 0".6. Nongravitational parameters A1 = +0.02, A2 = -0.0001.
|
星図
|
光度変化H = 13.5 G = 0.15 [ ,-103] ( 〜2004年11月13日) m1 = 8.0 + 5 logΔ + 30.0 log r(t - 10) [-103, 124] (2004年11月13日〜2005年 6月28日) H = 13.5 G = 0.15 [ 124, ] (2005年 6月28日〜 )
|
軌道要素はM.P.E.C. 2012-J16に掲載されたものです。
|